| time (UTC) | temp F | wind direction | speed MPH | gust MPH | rain 1hr in | rain 24hr in | rain mn in | humidity % | barometer mb |
| 20260904081142 | 86 | 317 | 1.0 | 5.0 | 0.00 | 0.00 | 0.00 | 66 | 1017.4 |
| 20260904080642 | 85 | 294 | 2.0 | 6.0 | 0.00 | 0.00 | 0.00 | 66 | 1017.3 |
| 20260904080145 | 85 | 316 | 3.0 | 8.0 | 0.00 | 0.00 | 0.00 | 66 | 1017.2 |
| 20260904075643 | 85 | 308 | 0.0 | 8.0 | 0.00 | 0.00 | 0.00 | 67 | 1017.2 |
| 20260904075142 | 84 | 205 | 0.0 | 5.0 | 0.00 | 0.00 | 0.00 | 68 | 1017.1 |
| 20260904074649 | 84 | 223 | 5.0 | 7.0 | 0.00 | 0.00 | 0.00 | 68 | 1017.0 |
| 20260904074143 | 84 | 225 | 5.0 | 6.0 | 0.00 | 0.00 | 0.00 | 68 | 1017.0 |
| 20260904073645 | 84 | 247 | 6.0 | 7.0 | 0.00 | 0.00 | 0.00 | 68 | 1016.9 |
| 20260904073142 | 84 | 248 | 5.0 | 7.0 | 0.00 | 0.00 | 0.00 | 68 | 1016.9 |
| 20260904072645 | 83 | 267 | 1.0 | 5.0 | 0.00 | 0.00 | 0.00 | 69 | 1016.9 |
| 20260904072142 | 83 | 207 | 0.0 | 4.0 | 0.00 | 0.00 | 0.00 | 69 | 1016.8 |
| 20260904071645 | 83 | 169 | 2.0 | 4.0 | 0.00 | 0.00 | 0.00 | 69 | 1016.8 |
| 20260904071146 | 83 | 175 | 3.0 | 5.0 | 0.00 | 0.00 | 0.00 | 68 | 1016.8 |
| 20260904070649 | 83 | 180 | 3.0 | 5.0 | 0.00 | 0.00 | 0.00 | 68 | 1016.7 |
| 20260904070143 | 83 | 205 | 3.0 | 5.0 | 0.00 | 0.00 | 0.00 | 68 | 1016.7 |
| 20260904065643 | 83 | 207 | 3.0 | 5.0 | 0.00 | 0.00 | 0.00 | 68 | 1016.8 |
| 20260904065149 | 83 | 254 | 0.0 | 4.0 | 0.00 | 0.00 | 0.00 | 68 | 1016.9 |
| 20260904064646 | 83 | 175 | 0.0 | 4.0 | 0.00 | 0.00 | 0.00 | 68 | 1017.0 |
| 20260904064146 | 83 | 178 | 3.0 | 5.0 | 0.00 | 0.00 | 0.00 | 68 | 1016.9 |
| 20260904063646 | 82 | 180 | 2.0 | 3.0 | 0.00 | 0.00 | 0.00 | 69 | 1016.9 |
| 20260904063145 | 82 | 164 | 1.0 | 6.0 | 0.00 | 0.00 | 0.00 | 70 | 1016.7 |
| 20260904062646 | 82 | 130 | 2.0 | 7.0 | 0.00 | 0.00 | 0.00 | 70 | 1016.8 |
| 20260904062146 | 81 | 179 | 4.0 | 5.0 | 0.00 | 0.00 | 0.00 | 70 | 1016.7 |
| 20260904061643 | 81 | 223 | 5.0 | 6.0 | 0.00 | 0.00 | 0.00 | 71 | 1016.7 |
| 20260904061143 | 81 | 195 | 3.0 | 5.0 | 0.00 | 0.00 | 0.00 | 72 | 1016.8 |
| 20260904060643 | 81 | 176 | 5.0 | 6.0 | 0.00 | 0.00 | 0.00 | 73 | 1016.7 |
| 20260904060143 | 81 | 208 | 2.0 | 2.0 | 0.00 | 0.00 | 0.00 | 75 | 1016.7 |
| 20260904055643 | 80 | 169 | 2.0 | 4.0 | 0.00 | 0.00 | 0.00 | 75 | 1016.8 |
| 20260904055143 | 80 | 124 | 3.0 | 5.0 | 0.00 | 0.00 | 0.00 | 76 | 1016.9 |
| 20260904054643 | 79 | 167 | 1.0 | 5.0 | 0.00 | 0.00 | 0.00 | 77 | 1016.8 |
| 20260904054143 | 79 | 117 | 2.0 | 5.0 | 0.00 | 0.00 | 0.00 | 78 | 1016.7 |
| 20260904053643 | 79 | 131 | 2.0 | 5.0 | 0.00 | 0.00 | 0.00 | 79 | 1016.8 |
| 20260904053143 | 78 | 157 | 1.0 | 3.0 | 0.00 | 0.00 | 0.00 | 79 | 1016.8 |
| 20260904052643 | 78 | 126 | 0.0 | 3.0 | 0.00 | 0.00 | 0.00 | 79 | 1016.9 |
| 20260904052143 | 78 | 178 | 1.0 | 3.0 | 0.00 | 0.00 | 0.00 | 80 | 1016.8 |
| 20260904051646 | 78 | 178 | 1.0 | 2.0 | 0.00 | 0.00 | 0.00 | 80 | 1016.7 |
| 20260904051143 | 78 | 178 | 1.0 | 3.0 | 0.00 | 0.00 | 0.00 | 80 | 1016.7 |
| 20260904050643 | 78 | 180 | 2.0 | 6.0 | 0.00 | 0.00 | 0.00 | 80 | 1016.6 |
| 20260904050143 | 78 | 160 | 6.0 | 5.0 | 0.00 | 0.00 | 0.00 | 80 | 1016.5 |
| 20260904045646 | 78 | 181 | 2.0 | 3.0 | 0.00 | 0.00 | 0.00 | 80 | 1016.4 |
| 20260904045149 | 78 | 159 | 3.0 | 4.0 | 0.00 | 0.00 | 0.00 | 80 | 1016.4 |
| 20260904044643 | 78 | 130 | 1.0 | 3.0 | 0.00 | 0.00 | 0.00 | 80 | 1016.4 |
| 20260904044146 | 78 | 173 | 2.0 | 3.0 | 0.00 | 0.00 | 0.00 | 81 | 1016.3 |
| 20260904043643 | 78 | 159 | 0.0 | 4.0 | 0.00 | 0.00 | 0.00 | 81 | 1016.3 |
| 20260904043143 | 77 | 175 | 0.0 | 4.0 | 0.00 | 0.00 | 0.00 | 81 | 1016.2 |
| 20260904042649 | 78 | 169 | 3.0 | 5.0 | 0.00 | 0.00 | 0.00 | 81 | 1016.3 |
| 20260904042146 | 78 | 116 | 0.0 | 4.0 | 0.00 | 0.00 | 0.00 | 81 | 1016.3 |
| 20260904041646 | 78 | 163 | 1.0 | 6.0 | 0.00 | 0.00 | 0.00 | 81 | 1016.3 |
| 20260904041143 | 78 | 126 | 2.0 | 5.0 | 0.00 | 0.00 | 0.00 | 80 | 1016.3 |
| 20260904040646 | 78 | 112 | 5.0 | 6.0 | 0.00 | 0.00 | 0.00 | 80 | 1016.4 |
| 20260904040143 | 78 | 146 | 3.0 | 5.0 | 0.00 | 0.00 | 0.00 | 80 | 1016.3 |
| 20260904035643 | 78 | 149 | 4.0 | 6.0 | 0.00 | 0.00 | 0.00 | 80 | 1016.3 |
| 20260904035146 | 78 | 166 | 1.0 | 4.0 | 0.00 | 0.00 | 0.00 | 80 | 1016.3 |
| 20260904034649 | 78 | 150 | 0.0 | 6.0 | 0.00 | 0.00 | 0.00 | 80 | 1016.3 |
| 20260904034143 | 78 | 164 | 1.0 | 4.0 | 0.00 | 0.00 | 0.00 | 80 | 1016.2 |
| 20260904033643 | 78 | 169 | 2.0 | 5.0 | 0.00 | 0.00 | 0.00 | 80 | 1016.2 |
| 20260904033143 | 78 | 179 | 1.0 | 5.0 | 0.00 | 0.00 | 0.00 | 80 | 1016.1 |
| 20260904032643 | 78 | 134 | 0.0 | 3.0 | 0.00 | 0.00 | 0.00 | 80 | 1016.2 |
| 20260904032146 | 78 | 180 | 0.0 | 3.0 | 0.00 | 0.00 | 0.00 | 80 | 1016.2 |
| 20260904031646 | 78 | 188 | 2.0 | 4.0 | 0.00 | 0.00 | 0.00 | 80 | 1016.2 |
| 20260904031143 | 78 | 146 | 4.0 | 4.0 | 0.00 | 0.00 | 0.00 | 80 | 1016.2 |
| 20260904030646 | 78 | 151 | 1.0 | 6.0 | 0.00 | 0.00 | 0.00 | 80 | 1016.2 |
| 20260904030143 | 78 | 85 | 1.0 | 4.0 | 0.00 | 0.00 | 0.00 | 80 | 1016.2 |
| 20260904025649 | 78 | 137 | 0.0 | 4.0 | 0.00 | 0.00 | 0.00 | 80 | 1016.2 |
| 20260904025144 | 78 | 148 | 0.0 | 5.0 | 0.00 | 0.00 | 0.00 | 80 | 1016.2 |
| 20260904024643 | 78 | 164 | 3.0 | 5.0 | 0.00 | 0.00 | 0.00 | 80 | 1016.2 |
| 20260904024149 | 78 | 167 | 2.0 | 5.0 | 0.00 | 0.00 | 0.00 | 79 | 1016.2 |
| 20260904023643 | 78 | 173 | 2.0 | 5.0 | 0.00 | 0.00 | 0.00 | 79 | 1016.2 |
| 20260904023149 | 78 | 170 | 3.0 | 4.0 | 0.00 | 0.00 | 0.00 | 79 | 1016.2 |
| 20260904022643 | 78 | 181 | 3.0 | 4.0 | 0.00 | 0.00 | 0.00 | 79 | 1016.2 |
| 20260904022143 | 78 | 177 | 3.0 | 4.0 | 0.00 | 0.00 | 0.00 | 79 | 1016.2 |
| 20260904021643 | 78 | 171 | 0.0 | 5.0 | 0.00 | 0.00 | 0.00 | 79 | 1016.2 |
| 20260904021146 | 78 | 138 | 1.0 | 7.0 | 0.00 | 0.00 | 0.00 | 79 | 1016.3 |
| 20260904020646 | 78 | 144 | 3.0 | 5.0 | 0.00 | 0.00 | 0.00 | 79 | 1016.2 |
| 20260904020145 | 78 | 175 | 3.0 | 7.0 | 0.00 | 0.00 | 0.00 | 79 | 1016.2 |
| 20260904015645 | 78 | 124 | 3.0 | 5.0 | 0.00 | 0.00 | 0.00 | 79 | 1016.2 |
| 20260904015142 | 78 | 138 | 4.0 | 6.0 | 0.00 | 0.00 | 0.00 | 79 | 1016.2 |
| 20260904014645 | 78 | 123 | 1.0 | 7.0 | 0.00 | 0.00 | 0.00 | 79 | 1016.2 |
| 20260904014142 | 78 | 84 | 0.0 | 7.0 | 0.00 | 0.00 | 0.00 | 79 | 1016.2 |
| 20260904013645 | 78 | 207 | 1.0 | 6.0 | 0.00 | 0.00 | 0.00 | 79 | 1016.2 |
| 20260904013145 | 79 | 137 | 3.0 | 5.0 | 0.00 | 0.00 | 0.00 | 79 | 1016.2 |
| 20260904012651 | 79 | 251 | 1.0 | 5.0 | 0.00 | 0.00 | 0.00 | 80 | 1016.2 |
| 20260904012142 | 79 | 148 | 0.0 | 6.0 | 0.00 | 0.00 | 0.00 | 80 | 1016.2 |
| 20260904011642 | 79 | 174 | 2.0 | 4.0 | 0.00 | 0.00 | 0.00 | 79 | 1016.1 |
| 20260904011145 | 79 | 158 | 2.0 | 4.0 | 0.00 | 0.00 | 0.00 | 80 | 1016.1 |
| 20260904010648 | 79 | 160 | 1.0 | 4.0 | 0.00 | 0.00 | 0.00 | 79 | 1016.1 |
| 20260904010142 | 79 | 156 | 3.0 | 4.0 | 0.00 | 0.00 | 0.00 | 80 | 1016.0 |
| 20260904005645 | 79 | 165 | 1.0 | 5.0 | 0.00 | 0.00 | 0.00 | 80 | 1015.9 |
| 20260904005148 | 79 | 113 | 0.0 | 5.0 | 0.00 | 0.00 | 0.00 | 80 | 1015.8 |
| 20260904004645 | 79 | 161 | 2.0 | 5.0 | 0.00 | 0.00 | 0.00 | 80 | 1016.0 |
| 20260904004142 | 79 | 109 | 0.0 | 5.0 | 0.00 | 0.00 | 0.00 | 80 | 1016.0 |
| 20260904003642 | 79 | 156 | 2.0 | 6.0 | 0.00 | 0.00 | 0.00 | 80 | 1016.0 |
| 20260904003142 | 79 | 117 | 1.0 | 7.0 | 0.00 | 0.00 | 0.00 | 80 | 1016.0 |
| 20260904002642 | 79 | 163 | 0.0 | 6.0 | 0.00 | 0.00 | 0.00 | 79 | 1016.2 |
| 20260904002148 | 79 | 140 | 0.0 | 5.0 | 0.00 | 0.00 | 0.00 | 79 | 1016.1 |
| 20260904001648 | 79 | 186 | 0.0 | 7.0 | 0.00 | 0.00 | 0.00 | 79 | 1016.2 |
| 20260904001142 | 79 | 130 | 3.0 | 4.0 | 0.00 | 0.00 | 0.00 | 79 | 1016.2 |
| 20260904000645 | 80 | 96 | 0.0 | 3.0 | 0.00 | 0.00 | 0.00 | 78 | 1016.3 |
| 20260904000145 | 80 | 144 | 0.0 | 5.0 | 0.00 | 0.00 | 0.00 | 78 | 1016.3 |
| 20260903235642 | 80 | 142 | 3.0 | 3.0 | 0.00 | 0.00 | 0.00 | 78 | 1016.4 |
| 20260903235142 | 80 | 199 | 2.0 | 5.0 | 0.00 | 0.00 | 0.00 | 78 | 1016.4 |
| 20260903234642 | 80 | 115 | 0.0 | 0.0 | 0.00 | 0.00 | 0.00 | 77 | 1016.3 |
| 20260903234151 | 80 | 173 | 0.0 | 0.0 | 0.00 | 0.00 | 0.00 | 77 | 1016.4 |
| 20260903233642 | 80 | 146 | 0.0 | 0.0 | 0.00 | 0.00 | 0.00 | 77 | 1016.5 |
| 20260903233142 | 81 | 146 | 0.0 | 0.0 | 0.00 | 0.00 | 0.00 | 77 | 1016.5 |
| 20260903232646 | 81 | 146 | 0.0 | 0.0 | 0.00 | 0.00 | 0.00 | 77 | 1016.5 |
| 20260903232142 | 80 | 146 | 0.0 | 3.0 | 0.00 | 0.00 | 0.00 | 77 | 1016.5 |
| 20260903231642 | 80 | 169 | 1.0 | 4.0 | 0.00 | 0.00 | 0.00 | 77 | 1016.5 |
| 20260903231145 | 81 | 169 | 3.0 | 5.0 | 0.00 | 0.00 | 0.00 | 77 | 1016.5 |
| 20260903230645 | 81 | 173 | 3.0 | 5.0 | 0.00 | 0.00 | 0.00 | 76 | 1016.5 |
| 20260903230145 | 81 | 180 | 2.0 | 4.0 | 0.00 | 0.00 | 0.00 | 76 | 1016.6 |
| 20260903225645 | 81 | 196 | 1.0 | 4.0 | 0.00 | 0.00 | 0.00 | 76 | 1016.6 |
| 20260903225145 | 81 | 213 | 1.0 | 5.0 | 0.00 | 0.00 | 0.00 | 76 | 1016.5 |
| 20260903224643 | 81 | 236 | 3.0 | 5.0 | 0.00 | 0.00 | 0.00 | 76 | 1016.5 |
| 20260903224148 | 81 | 173 | 2.0 | 4.0 | 0.00 | 0.00 | 0.00 | 76 | 1016.5 |
| 20260903223642 | 82 | 158 | 2.0 | 4.0 | 0.00 | 0.00 | 0.00 | 75 | 1016.6 |
| 20260903223145 | 82 | 142 | 0.0 | 0.0 | 0.00 | 0.00 | 0.00 | 74 | 1016.5 |
| 20260903222645 | 82 | 246 | 0.0 | 0.0 | 0.00 | 0.00 | 0.00 | 74 | 1016.6 |
| 20260903222142 | 82 | 246 | 0.0 | 0.0 | 0.00 | 0.00 | 0.00 | 74 | 1016.5 |
| 20260903221645 | 82 | 246 | 0.0 | 3.0 | 0.00 | 0.00 | 0.00 | 74 | 1016.6 |
| 20260903221145 | 82 | 246 | 1.0 | 3.0 | 0.00 | 0.00 | 0.00 | 74 | 1016.5 |
| 20260903220648 | 83 | 246 | 0.0 | 3.0 | 0.00 | 0.00 | 0.00 | 74 | 1016.4 |
| 20260903220146 | 83 | 246 | 2.0 | 3.0 | 0.00 | 0.00 | 0.00 | 74 | 1016.4 |
| 20260903215645 | 83 | 246 | 0.0 | 0.0 | 0.00 | 0.00 | 0.00 | 73 | 1016.5 |
| 20260903215148 | 83 | 246 | 0.0 | 0.0 | 0.00 | 0.00 | 0.00 | 73 | 1016.6 |
| 20260903214642 | 83 | 309 | 0.0 | 4.0 | 0.00 | 0.00 | 0.00 | 73 | 1016.6 |
| 20260903214142 | 83 | 300 | 0.0 | 3.0 | 0.00 | 0.00 | 0.00 | 74 | 1016.6 |
| 20260903213645 | 83 | 300 | 0.0 | 4.0 | 0.00 | 0.00 | 0.00 | 74 | 1016.6 |
| 20260903213142 | 83 | 300 | 0.0 | 3.0 | 0.00 | 0.00 | 0.00 | 74 | 1016.6 |
| 20260903212642 | 83 | 256 | 2.0 | 3.0 | 0.00 | 0.00 | 0.00 | 74 | 1016.5 |
| 20260903212145 | 83 | 311 | 1.0 | 4.0 | 0.00 | 0.00 | 0.00 | 74 | 1016.6 |
| 20260903211648 | 83 | 307 | 0.0 | 2.0 | 0.00 | 0.00 | 0.00 | 74 | 1016.5 |
| 20260903211142 | 83 | 307 | 2.0 | 4.0 | 0.00 | 0.00 | 0.00 | 74 | 1016.6 |
| 20260903210648 | 83 | 302 | 3.0 | 4.0 | 0.00 | 0.00 | 0.00 | 74 | 1016.6 |
| 20260903210142 | 83 | 315 | 2.0 | 4.0 | 0.00 | 0.00 | 0.00 | 74 | 1016.5 |
| 20260903205642 | 83 | 307 | 4.0 | 5.0 | 0.00 | 0.00 | 0.00 | 74 | 1016.5 |
| 20260903205145 | 83 | 296 | 3.0 | 4.0 | 0.00 | 0.00 | 0.00 | 74 | 1016.5 |
| 20260903204642 | 83 | 285 | 0.0 | 3.0 | 0.00 | 0.00 | 0.00 | 74 | 1016.5 |
| 20260903204142 | 83 | 285 | 1.0 | 3.0 | 0.00 | 0.00 | 0.00 | 75 | 1016.5 |
| 20260903203642 | 83 | 294 | 0.0 | 2.0 | 0.00 | 0.00 | 0.00 | 75 | 1016.5 |
| 20260903203142 | 83 | 294 | 2.0 | 4.0 | 0.00 | 0.00 | 0.00 | 74 | 1016.5 |
| 20260903202645 | 83 | 302 | 1.0 | 4.0 | 0.00 | 0.00 | 0.00 | 74 | 1016.5 |
| 20260903202142 | 83 | 282 | 3.0 | 4.0 | 0.00 | 0.00 | 0.00 | 74 | 1016.5 |
| 20260903201642 | 83 | 311 | 4.0 | 4.0 | 0.00 | 0.00 | 0.00 | 74 | 1016.5 |
| 20260903201142 | 83 | 308 | 3.0 | 6.0 | 0.00 | 0.00 | 0.00 | 74 | 1016.5 |
| 20260903200642 | 83 | 333 | 3.0 | 4.0 | 0.00 | 0.00 | 0.00 | 74 | 1016.6 |
| 20260903200148 | 83 | 327 | 1.0 | 3.0 | 0.00 | 0.00 | 0.00 | 75 | 1016.6 |
| 20260903195651 | 83 | 273 | 2.0 | 6.0 | 0.00 | 0.00 | 0.00 | 75 | 1016.6 |
| 20260903195145 | 83 | 299 | 6.0 | 7.0 | 0.00 | 0.00 | 0.00 | 75 | 1016.6 |
| 20260903194645 | 83 | 299 | 2.0 | 5.0 | 0.00 | 0.00 | 0.00 | 75 | 1016.5 |
| 20260903194145 | 83 | 302 | 3.0 | 6.0 | 0.00 | 0.00 | 0.00 | 75 | 1016.5 |
| 20260903193645 | 83 | 317 | 5.0 | 5.0 | 0.00 | 0.00 | 0.00 | 74 | 1016.6 |
| 20260903193145 | 84 | 272 | 3.0 | 5.0 | 0.00 | 0.00 | 0.00 | 74 | 1016.5 |
| 20260903192642 | 84 | 315 | 3.0 | 5.0 | 0.00 | 0.00 | 0.00 | 74 | 1016.4 |
| 20260903192145 | 84 | 292 | 1.0 | 5.0 | 0.00 | 0.00 | 0.00 | 74 | 1016.3 |
| 20260903191642 | 84 | 287 | 2.0 | 6.0 | 0.00 | 0.00 | 0.00 | 74 | 1016.3 |
| 20260903191142 | 84 | 309 | 3.0 | 7.0 | 0.00 | 0.00 | 0.00 | 74 | 1016.3 |
| 20260903190642 | 84 | 269 | 5.0 | 7.0 | 0.00 | 0.00 | 0.00 | 74 | 1016.3 |
| 20260903190142 | 84 | 293 | 3.0 | 8.0 | 0.00 | 0.00 | 0.00 | 73 | 1016.3 |
| 20260903185651 | 84 | 272 | 5.0 | 8.0 | 0.00 | 0.00 | 0.00 | 73 | 1016.0 |
| 20260903185142 | 84 | 284 | 2.0 | 6.0 | 0.00 | 0.00 | 0.00 | 72 | 1016.0 |
| 20260903184642 | 84 | 248 | 3.0 | 8.0 | 0.00 | 0.00 | 0.00 | 72 | 1016.0 |
| 20260903184149 | 84 | 327 | 4.0 | 6.0 | 0.00 | 0.00 | 0.00 | 73 | 1016.0 |
| 20260903183642 | 84 | 287 | 4.0 | 6.0 | 0.00 | 0.00 | 0.00 | 73 | 1015.9 |
| 20260903183145 | 84 | 306 | 4.0 | 6.0 | 0.00 | 0.00 | 0.00 | 72 | 1015.8 |
| 20260903182645 | 84 | 275 | 3.0 | 5.0 | 0.00 | 0.00 | 0.00 | 72 | 1015.7 |
| 20260903182145 | 84 | 216 | 2.0 | 6.0 | 0.00 | 0.00 | 0.00 | 71 | 1015.7 |
| 20260903181645 | 84 | 313 | 3.0 | 3.0 | 0.00 | 0.00 | 0.00 | 70 | 1015.6 |
| 20260903181142 | 84 | 298 | 0.0 | 3.0 | 0.00 | 0.00 | 0.00 | 70 | 1015.5 |
| 20260903180642 | 84 | 295 | 3.0 | 5.0 | 0.00 | 0.00 | 0.00 | 70 | 1015.4 |
| 20260903180142 | 84 | 301 | 3.0 | 5.0 | 0.00 | 0.00 | 0.00 | 69 | 1015.4 |
| 20260903175645 | 84 | 257 | 3.0 | 4.0 | 0.00 | 0.00 | 0.00 | 69 | 1015.4 |
| 20260903175151 | 84 | 277 | 3.0 | 6.0 | 0.00 | 0.00 | 0.00 | 69 | 1015.3 |
| 20260903174645 | 84 | 269 | 0.0 | 4.0 | 0.00 | 0.00 | 0.00 | 69 | 1015.3 |
| 20260903174142 | 84 | 298 | 1.0 | 6.0 | 0.00 | 0.00 | 0.00 | 69 | 1015.2 |
| 20260903173642 | 85 | 272 | 3.0 | 8.0 | 0.00 | 0.00 | 0.00 | 68 | 1015.2 |
| 20260903173145 | 85 | 307 | 4.0 | 8.0 | 0.00 | 0.00 | 0.00 | 67 | 1015.1 |
| 20260903172642 | 85 | 300 | 4.0 | 6.0 | 0.00 | 0.00 | 0.00 | 67 | 1015.2 |
| 20260903172145 | 85 | 338 | 2.0 | 6.0 | 0.00 | 0.00 | 0.00 | 67 | 1015.2 |
| 20260903171645 | 85 | 334 | 2.0 | 8.0 | 0.00 | 0.00 | 0.00 | 67 | 1015.1 |
| 20260903171142 | 86 | 261 | 6.0 | 8.0 | 0.00 | 0.00 | 0.00 | 67 | 1015.1 |
| 20260903170648 | 86 | 306 | 7.0 | 9.0 | 0.00 | 0.00 | 0.00 | 66 | 1015.0 |
| 20260903170145 | 86 | 338 | 1.0 | 8.0 | 0.00 | 0.00 | 0.00 | 65 | 1015.0 |
| 20260903165642 | 86 | 315 | 5.0 | 6.0 | 0.00 | 0.00 | 0.00 | 65 | 1015.0 |
| 20260903165142 | 86 | 325 | 4.0 | 9.0 | 0.00 | 0.00 | 0.00 | 67 | 1015.0 |
| 20260903164648 | 87 | 270 | 5.0 | 7.0 | 0.00 | 0.00 | 0.00 | 67 | 1014.9 |
| 20260903164142 | 87 | 273 | 4.0 | 8.0 | 0.00 | 0.00 | 0.00 | 66 | 1014.9 |
| 20260903163651 | 87 | 297 | 5.0 | 5.0 | 0.00 | 0.00 | 0.00 | 68 | 1014.9 |
| 20260903163142 | 87 | 246 | 1.0 | 8.0 | 0.00 | 0.00 | 0.00 | 67 | 1014.9 |
| 20260903162642 | 87 | 305 | 5.0 | 8.0 | 0.00 | 0.00 | 0.00 | 66 | 1015.0 |
| 20260903162145 | 87 | 326 | 4.0 | 6.0 | 0.00 | 0.00 | 0.00 | 66 | 1015.0 |
| 20260903161645 | 87 | 253 | 1.0 | 7.0 | 0.00 | 0.00 | 0.00 | 66 | 1015.0 |
| 20260903161145 | 87 | 293 | 4.0 | 8.0 | 0.00 | 0.00 | 0.00 | 68 | 1015.0 |
| 20260903160645 | 87 | 277 | 2.0 | 8.0 | 0.00 | 0.00 | 0.00 | 67 | 1015.1 |
| 20260903160145 | 87 | 292 | 4.0 | 8.0 | 0.00 | 0.00 | 0.00 | 68 | 1015.0 |
| 20260903155642 | 87 | 5 | 7.0 | 10.0 | 0.00 | 0.00 | 0.00 | 68 | 1015.1 |
| 20260903155142 | 87 | 247 | 8.0 | 10.0 | 0.00 | 0.00 | 0.00 | 68 | 1015.1 |
| 20260903154645 | 87 | 327 | 3.0 | 7.0 | 0.00 | 0.00 | 0.00 | 67 | 1015.1 |
| 20260903154148 | 87 | 200 | 2.0 | 8.0 | 0.00 | 0.00 | 0.00 | 67 | 1015.1 |
| 20260903153646 | 87 | 294 | 9.0 | 9.0 | 0.00 | 0.00 | 0.00 | 67 | 1015.2 |
| 20260903153145 | 88 | 256 | 4.0 | 7.0 | 0.00 | 0.00 | 0.00 | 67 | 1015.2 |
| 20260903152645 | 87 | 270 | 2.0 | 8.0 | 0.00 | 0.00 | 0.00 | 68 | 1015.2 |
| 20260903152145 | 87 | 262 | 0.0 | 6.0 | 0.00 | 0.00 | 0.00 | 69 | 1015.1 |
| 20260903151642 | 87 | 325 | 1.0 | 7.0 | 0.00 | 0.00 | 0.00 | 68 | 1015.1 |
| 20260903151145 | 87 | 36 | 3.0 | 6.0 | 0.00 | 0.00 | 0.00 | 67 | 1015.0 |
| 20260903150645 | 88 | 271 | 3.0 | 7.0 | 0.00 | 0.00 | 0.00 | 67 | 1015.0 |
| 20260903150145 | 87 | 307 | 5.0 | 5.0 | 0.00 | 0.00 | 0.00 | 68 | 1015.0 |
| 20260903145651 | 87 | 25 | 3.0 | 11.0 | 0.00 | 0.00 | 0.00 | 68 | 1015.1 |
| 20260903145145 | 87 | 287 | 8.0 | 8.0 | 0.00 | 0.00 | 0.00 | 69 | 1015.2 |
| 20260903144642 | 87 | 16 | 4.0 | 9.0 | 0.00 | 0.00 | 0.00 | 67 | 1015.2 |
| 20260903144142 | 88 | 18 | 5.0 | 11.0 | 0.00 | 0.00 | 0.00 | 66 | 1015.2 |
| 20260903143642 | 88 | 334 | 7.0 | 10.0 | 0.00 | 0.00 | 0.00 | 67 | 1015.2 |
| 20260903143142 | 88 | 291 | 0.0 | 6.0 | 0.00 | 0.00 | 0.00 | 68 | 1015.3 |
| 20260903142648 | 88 | 5 | 3.0 | 7.0 | 0.00 | 0.00 | 0.00 | 66 | 1015.3 |
| 20260903142148 | 87 | 309 | 5.0 | 8.0 | 0.00 | 0.00 | 0.00 | 67 | 1015.3 |
| 20260903141642 | 87 | 269 | 7.0 | 9.0 | 0.00 | 0.00 | 0.00 | 68 | 1015.3 |
| 20260903141145 | 88 | 293 | 7.0 | 9.0 | 0.00 | 0.00 | 0.00 | 67 | 1015.3 |
| 20260903140645 | 87 | 252 | 3.0 | 7.0 | 0.00 | 0.00 | 0.00 | 68 | 1015.4 |
| 20260903140145 | 87 | 277 | 7.0 | 8.0 | 0.00 | 0.00 | 0.00 | 68 | 1015.4 |
| 20260903135645 | 87 | 355 | 9.0 | 9.0 | 0.00 | 0.00 | 0.00 | 69 | 1015.3 |
| 20260903135142 | 87 | 327 | 1.0 | 9.0 | 0.00 | 0.00 | 0.00 | 68 | 1015.4 |
| 20260903134648 | 87 | 244 | 5.0 | 8.0 | 0.00 | 0.00 | 0.00 | 67 | 1015.4 |
| 20260903134151 | 87 | 288 | 7.0 | 8.0 | 0.00 | 0.00 | 0.00 | 67 | 1015.5 |
| 20260903133642 | 88 | 265 | 1.0 | 8.0 | 0.00 | 0.00 | 0.00 | 67 | 1015.5 |
| 20260903133142 | 87 | 298 | 8.0 | 9.0 | 0.00 | 0.00 | 0.00 | 67 | 1015.5 |
| 20260903132642 | 87 | 296 | 7.0 | 10.0 | 0.00 | 0.00 | 0.00 | 68 | 1015.5 |
| 20260903132143 | 87 | 288 | 6.0 | 10.0 | 0.00 | 0.00 | 0.00 | 68 | 1015.5 |
| 20260903131648 | 87 | 253 | 2.0 | 8.0 | 0.00 | 0.00 | 0.00 | 67 | 1015.5 |
| 20260903131151 | 87 | 245 | 7.0 | 12.0 | 0.00 | 0.00 | 0.00 | 66 | 1015.5 |
| 20260903130643 | 87 | 282 | 5.0 | 10.0 | 0.00 | 0.00 | 0.00 | 65 | 1015.4 |
| 20260903130145 | 88 | 311 | 10.0 | 10.0 | 0.00 | 0.00 | 0.00 | 65 | 1015.5 |
| 20260903125645 | 88 | 268 | 8.0 | 11.0 | 0.00 | 0.00 | 0.00 | 65 | 1015.6 |
| 20260903125142 | 88 | 49 | 5.0 | 9.0 | 0.00 | 0.00 | 0.00 | 64 | 1015.6 |
| 20260903124642 | 88 | 286 | 6.0 | 10.0 | 0.00 | 0.00 | 0.00 | 65 | 1015.6 |
| 20260903124146 | 88 | 315 | 3.0 | 11.0 | 0.00 | 0.00 | 0.00 | 65 | 1015.6 |
| 20260903123643 | 88 | 290 | 10.0 | 12.0 | 0.00 | 0.00 | 0.00 | 65 | 1015.6 |
| 20260903123148 | 88 | 295 | 6.0 | 7.0 | 0.00 | 0.00 | 0.00 | 65 | 1015.6 |
| 20260903122646 | 88 | 287 | 2.0 | 12.0 | 0.00 | 0.00 | 0.00 | 64 | 1015.6 |
| 20260903122148 | 88 | 288 | 8.0 | 10.0 | 0.00 | 0.00 | 0.00 | 64 | 1015.6 |
| 20260903121645 | 88 | 326 | 4.0 | 12.0 | 0.00 | 0.00 | 0.00 | 63 | 1015.6 |
| 20260903121145 | 88 | 323 | 3.0 | 10.0 | 0.00 | 0.00 | 0.00 | 64 | 1015.6 |
| 20260903120643 | 88 | 284 | 5.0 | 10.0 | 0.00 | 0.00 | 0.00 | 65 | 1015.7 |
| 20260903120148 | 88 | 331 | 9.0 | 9.0 | 0.00 | 0.00 | 0.00 | 64 | 1015.7 |
| 20260903115643 | 88 | 247 | 1.0 | 9.0 | 0.00 | 0.00 | 0.00 | 64 | 1015.7 |
| 20260903115142 | 87 | 322 | 6.0 | 10.0 | 0.00 | 0.00 | 0.00 | 66 | 1015.6 |
| 20260903114642 | 87 | 331 | 4.0 | 11.0 | 0.00 | 0.00 | 0.00 | 64 | 1015.7 |
| 20260903114142 | 88 | 326 | 5.0 | 10.0 | 0.00 | 0.00 | 0.00 | 65 | 1015.7 |
| 20260903113648 | 88 | 306 | 6.0 | 12.0 | 0.00 | 0.00 | 0.00 | 64 | 1015.7 |
| 20260903113142 | 88 | 260 | 11.0 | 12.0 | 0.00 | 0.00 | 0.00 | 64 | 1015.8 |
| 20260903112645 | 88 | 302 | 5.0 | 12.0 | 0.00 | 0.00 | 0.00 | 64 | 1015.8 |
| 20260903112148 | 88 | 286 | 8.0 | 12.0 | 0.00 | 0.00 | 0.00 | 64 | 1015.8 |
| 20260903111649 | 88 | 343 | 4.0 | 10.0 | 0.00 | 0.00 | 0.00 | 62 | 1015.8 |
| 20260903111142 | 88 | 321 | 5.0 | 9.0 | 0.00 | 0.00 | 0.00 | 63 | 1015.8 |
| 20260903110642 | 88 | 309 | 8.0 | 10.0 | 0.00 | 0.00 | 0.00 | 61 | 1015.8 |
| 20260903110142 | 88 | 275 | 2.0 | 9.0 | 0.00 | 0.00 | 0.00 | 61 | 1015.7 |
| 20260903105642 | 88 | 343 | 6.0 | 9.0 | 0.00 | 0.00 | 0.00 | 61 | 1015.8 |
| 20260903105145 | 88 | 5 | 4.0 | 9.0 | 0.00 | 0.00 | 0.00 | 59 | 1015.8 |
| 20260903104642 | 88 | 355 | 7.0 | 9.0 | 0.00 | 0.00 | 0.00 | 60 | 1015.8 |
| 20260903104146 | 88 | 301 | 5.0 | 9.0 | 0.00 | 0.00 | 0.00 | 61 | 1015.8 |
| 20260903103646 | 88 | 298 | 7.0 | 10.0 | 0.00 | 0.00 | 0.00 | 60 | 1015.8 |
| 20260903103142 | 88 | 288 | 6.0 | 9.0 | 0.00 | 0.00 | 0.00 | 59 | 1015.9 |
| 20260903102642 | 88 | 324 | 3.0 | 11.0 | 0.00 | 0.00 | 0.00 | 58 | 1015.9 |
| 20260903102142 | 88 | 343 | 4.0 | 10.0 | 0.00 | 0.00 | 0.00 | 60 | 1015.9 |
| 20260903101642 | 88 | 307 | 4.0 | 10.0 | 0.00 | 0.00 | 0.00 | 60 | 1016.0 |
| 20260903101146 | 88 | 305 | 3.0 | 10.0 | 0.00 | 0.00 | 0.00 | 58 | 1016.1 |
| 20260903100649 | 88 | 288 | 7.0 | 8.0 | 0.00 | 0.00 | 0.00 | 59 | 1016.2 |
| 20260903100145 | 88 | 281 | 0.0 | 8.0 | 0.00 | 0.00 | 0.00 | 59 | 1016.1 |
| 20260903095643 | 88 | 321 | 2.0 | 9.0 | 0.00 | 0.00 | 0.00 | 59 | 1016.2 |
| 20260903095143 | 88 | 306 | 5.0 | 7.0 | 0.00 | 0.00 | 0.00 | 60 | 1016.3 |
| 20260903094649 | 88 | 326 | 5.0 | 7.0 | 0.00 | 0.00 | 0.00 | 59 | 1016.3 |
| 20260903094143 | 88 | 296 | 4.0 | 7.0 | 0.00 | 0.00 | 0.00 | 60 | 1016.4 |
| 20260903093643 | 88 | 277 | 2.0 | 7.0 | 0.00 | 0.00 | 0.00 | 60 | 1016.4 |
| 20260903093146 | 88 | 25 | 4.0 | 6.0 | 0.00 | 0.00 | 0.00 | 60 | 1016.4 |
| 20260903092646 | 88 | 300 | 3.0 | 5.0 | 0.00 | 0.00 | 0.00 | 60 | 1016.5 |
| 20260903092149 | 87 | 344 | 2.0 | 8.0 | 0.00 | 0.00 | 0.00 | 62 | 1016.5 |
| 20260903091643 | 87 | 299 | 5.0 | 6.0 | 0.00 | 0.00 | 0.00 | 62 | 1016.6 |
| 20260903091146 | 87 | 251 | 3.0 | 8.0 | 0.00 | 0.00 | 0.00 | 62 | 1016.5 |
| 20260903090646 | 87 | 302 | 3.0 | 7.0 | 0.00 | 0.00 | 0.00 | 64 | 1016.4 |
| 20260903090143 | 87 | 231 | 3.0 | 8.0 | 0.00 | 0.00 | 0.00 | 63 | 1016.5 |
| 20260903085646 | 87 | 209 | 3.0 | 9.0 | 0.00 | 0.00 | 0.00 | 62 | 1016.5 |
| 20260903085146 | 87 | 0 | 3.0 | 6.0 | 0.00 | 0.00 | 0.00 | 60 | 1016.5 |
| 20260903084643 | 87 | 330 | 1.0 | 7.0 | 0.00 | 0.00 | 0.00 | 60 | 1016.5 |
| 20260903084143 | 87 | 217 | 2.0 | 7.0 | 0.00 | 0.00 | 0.00 | 61 | 1016.5 |
| 20260903083646 | 87 | 213 | 3.0 | 6.0 | 0.00 | 0.00 | 0.00 | 61 | 1016.4 |
| 20260903083143 | 86 | 9 | 2.0 | 6.0 | 0.00 | 0.00 | 0.00 | 62 | 1016.4 |
| 20260903082643 | 86 | 331 | 3.0 | 6.0 | 0.00 | 0.00 | 0.00 | 63 | 1016.4 |
| 20260903082143 | 86 | 194 | 3.0 | 7.0 | 0.00 | 0.00 | 0.00 | 63 | 1016.4 |
| 20260903081646 | 86 | 258 | 4.0 | 7.0 | 0.00 | 0.00 | 0.00 | 64 | 1016.4 |